Simultaneous Nadir Overpasses (SNOs) Predictions

Prediction of SNOs between GOES-17 and NOAA-19 Satellite Orbit:

Table of predicted SNOs for the next 14.0 days since TLE Epoch: 12/31/2021
Index Date Time (GOES-17) GOES-17 Lat,Lon NOAA-19 Lat,Lon Distance(km) Time Diff (sec)
1 01/01/2022 04:21:28 0.04,-137.23 0.58,-134.97 258.47 80
2 01/03/2022 16:44:53 -0.03,-137.24 0.56,-139.88 300.23 80
3 01/04/2022 16:30:26 -0.03,-137.25 -0.08,-136.99 28.59 80
4 01/05/2022 16:18:39 -0.03,-137.25 -0.78,-134.13 357.36 80
5 01/08/2022 04:42:02 0.02,-137.25 -0.38,-139.03 201.94 80
6 01/09/2022 04:27:35 0.02,-137.26 0.28,-136.15 126.75 80
7 01/10/2022 04:15:47 0.02,-137.26 0.93,-133.27 455.30 80
8 01/11/2022 16:50:59 -0.02,-137.26 0.88,-141.05 433.50 80
9 01/12/2022 16:36:33 -0.02,-137.26 0.17,-138.19 105.34 80
10 01/13/2022 16:27:25 -0.01,-137.26 -0.49,-135.31 222.83 80
